Regional Weather Roundup
Issued by NWS

Home | Current Version | Previous Version | Text Only | Print | Product List | Glossary On
Versions: 1 2 3 4 5 6 7 8 9 10 11 12 13 14 15 16 17 18 19 20 21 22 23 24 25 26 27 28 29 30 31 32 33 34 35 36 37 38 39 40 41 42 43 44 45 46 47 48 49 50
000
ASCA44 KEWX 181620
RWRMX

LATIN AMERICA AND CARIBBEAN REGIONAL WEATHER ROUNDUP
NATIONAL WEATHER SERVICE AUSTIN/SAN ANTONIO TX
1100 AM CDT THU SEP 18 2014

NOTE: "FAIR" INDICATED FEW OR NO CLOUDS BELOW 12,000 FEET WITH NO
SIGNIFICANT WEATHER AND/OR OBSTRUCTIONS TO VISIBILITY.

BAJA CALIFORNIA

CITY           SKY/WX    TMP DP  RH WIND       PRES   REMARKS
LORETO         MOSUNNY   82  73  74 CALM      29.78S
LA PAZ         MOSUNNY   81  70  69 CALM      29.85
MEXICALI       SUNNY     86  75  70 SE3       29.72  HX  95
S.J. DEL CABO  MOSUNNY   86  75  70 CALM      29.84R HX  95
TIJUANA        CLOUDY    72  63  73 NW3       29.91R

NORTHWESTERN MEXICO

CITY           SKY/WX    TMP DP  RH WIND       PRES   REMARKS
CULIACAN         N/A    N/A N/A N/A MISG        N/A
DURANGO        SUNNY     68  59  73 CALM      30.20
GUAYMAS        PTSUNNY   86  79  79 CALM      29.76  HX  99
HERMOSILLO     PTSUNNY   81  77  89 S5        29.84
CD. JUAREZ     CLOUDY    68  66  94 CALM      29.96
LOS MOCHIS       N/A    N/A N/A N/A MISG        N/A
OBREGON        MOSUNNY   84  72  65 E7        29.79

NORTHEASTERN MEXICO

CITY           SKY/WX    TMP DP  RH WIND       PRES   REMARKS
CHIHUAHUA      MOSUNNY   73  59  60 CALM      30.05
MATAMOROS      CLOUDY    84  81  89 SE12      29.90  HX  98
MONCLOVA       MOSUNNY   79  70  73 CALM      29.87F
MONTERREY      CLOUDY    77  72  83 SE6       29.89R
NUEVO LAREDO   PTSUNNY   84  73  70 SE12      29.87  HX  91
PIEDRAS NEGRAS CLOUDY    81  73  78 SE7       29.90S
REYNOSA        PTSUNNY   82  73  74 SE6       29.87
SALTILLO       MOSUNNY   81  63  54 CALM      30.09S
TORREON        MOSUNNY   81  63  54 CALM      30.00S
CD. VICTORIA   MOSUNNY   82  72  69 S14       29.88

WESTERN MEXICO

CITY           SKY/WX    TMP DP  RH WIND       PRES   REMARKS
AGUASCALIENTES SUNNY     68  55  64 S3        30.24
COLIMA         DRIZZLE   70  68  94 N12       29.97F
DEL BAJIO      MOSUNNY   72  59  64 CALM      30.26F
GUADALAJARA    CLOUDY    68  64  88 SE7       30.15
MANZANILLO     RAIN      79  75  89 SE17      29.81R
MAZATLAN       PTSUNNY   81  73  78 CALM      29.78R
P. VALLARTA    CLOUDY    84  73  70 CALM      29.82R HX  91
URUAPAN        CLOUDY    66  64  94 CALM      30.21R FOG
ZACATECAS      PTSUNNY   70  50  49 SW9       30.25R

CENTRAL MEXICO

CITY           SKY/WX    TMP DP  RH WIND       PRES   REMARKS
CUERNAVACA     MOSUNNY   75  61  60 CALM      30.17S
MEXICO CITY    SUNNY     70  50  49 NE6       30.32S
MORELIA        MOSUNNY   70  59  68 SW8       30.22
POZA RICA      MOSUNNY   90  79  70 S5        29.91S HX 105
PUEBLA         MOSUNNY   73  61  64 SE3       30.38R
QUERETARO      SUNNY     70  55  60 E2        30.29S
S. LUIS POTOSI FOG       64  57  77 SE7       30.22S VSB 1
TAMPICO        PTSUNNY   82  77  83 W6        29.88S HX  91
TOLUCA         MOSUNNY   66  45  45 SE17      30.40S

SOUTHERN MEXICO

CITY           SKY/WX    TMP DP  RH WIND       PRES   REMARKS
ACAPULCO       MOSUNNY   84  77  79 NE5       29.93R HX  94
B. DE HUATULCO MOSUNNY   82  73  74 CALM      29.94
OAXACA         CLOUDY    70  59  68 N3        30.22F
P. ESCONDIDO   MOSUNNY   86  72  62 W8        30.06R HX  92
VERACRUZ       MOSUNNY   84  73  70 S9        29.89R HX  91
ZIHUATANEJO    PTSUNNY   82  75  78 CALM      29.91R

YUCATAN PENINSULA

CITY           SKY/WX    TMP DP  RH WIND       PRES   REMARKS
CAMPECHE       MOSUNNY   82  77  83 E12       29.91S HX  91
CANCUN         MOSUNNY   86  75  70 SE12      29.96R HX  95
CHETUMAL       PTSUNNY   84  75  74 E9        29.94R HX  92
CD. DEL CARMEN SUNNY     86  73  66 SE16      29.90  HX  93
COZUMEL        MOSUNNY   84  75  74 SE3       29.96R HX  92
MERIDA         MOSUNNY   86  70  58 S9        29.94S HX  90
MINATITLAN     PTSUNNY   86  73  66 SE8       29.88  HX  93
TAPACHULA      SUNNY     86  75  70 CALM      29.93R HX  95
TUX. GUTIERREZ MOSUNNY   84  70  61 E2        29.99S
VILLAHERMOSA   MOSUNNY   88  79  74 CALM      29.91S HX 102

CENTRAL AMERICA

CITY           SKY/WX    TMP DP  RH WIND       PRES   REMARKS
BELIZE CITY    PTSUNNY   86  77  74 E6        29.94R HX  97
MANAGUA        MOSUNNY   86  73  66 E12       29.89S HX  93

CARIBBEAN

CITY           SKY/WX    TMP DP  RH WIND       PRES   REMARKS
ARUBA          PTSUNNY   86  77  74 SE14      29.89F HX  97
KINGSTON       MOSUNNY   86  75  70 S7        29.94S HX  95
NASSAU         PTSUNNY   86  73  66 W9        29.96S HX  93
SAN JUAN       MOSUNNY   88  79  74 NE12      29.97F HX 102
ST. CROIX      MOSUNNY   88  77  70 E8        29.97F HX 100
ST. THOMAS     SUNNY     84  75  74 S9        29.96F HX  92

$$




USA.gov is the U.S. government's official web portal to all federal, state and local government web resources and services.